ギブス彗星

C/2010 M1 ( Gibbs )

English version
Home page
Updated on April 7, 2020

---------------------------------------------------------------------

・ プロフィール

発見日 2010年6月22日
発見光度 20.9等
発見者 A. R. Gibbs (Mount Lemmon Survey)

・ 軌道要素

Epoch 2020 May 31.0 TT = JDT 2459000.5                                          
T 2010 Dec. 8.76708 TT                                  Rudenko                 
q   8.0016265            (2000.0)            P               Q                  
z  +0.0009174      Peri.  167.48068     -0.30153777     -0.48533121             
 +/-0.0001884      Node    66.44853     -0.93365991     +0.32478428             
e   0.9926590      Incl.  116.45792     -0.19327220     -0.81176892             
From 24 observations 2010 May 18-July 8, mean residual 0".4.                    

・ 光度変化

        m1 = 7.0 + 5 logΔ + 10.0 log r

---------------------------------------------------------------------

軌道要素はM.P.E.C. 2020-G65に掲載されたものです。
光度グラフはComet for Windowsで作成したものです。

---------------------------------------------------------------------

Copyright(C) Seiichi Yoshida (comet@aerith.net). All rights reserved.